Regional Weather Roundup
Issued by NWS

Home | Current Version | Previous Version | Text Only | Print | Product List | Glossary Off
Versions: 1 2 3 4 5 6 7 8 9 10 11 12 13 14 15 16 17 18 19 20 21 22 23 24 25 26 27 28 29 30 31 32 33 34 35 36 37 38 39 40 41 42 43 44 45 46 47 48 49 50

000
ASUS43 KLOT 200110
RWRIL

ILLINOIS REGIONAL WEATHER ROUNDUP
NATIONAL WEATHER SERVICE CHICAGO/ROMEOVILLE IL
700 PM CST FRI DEC 19 2014

NOTE: "FAIR" INDICATES FEW OR NO CLOUDS BELOW 12,000 FEET WITH NO
SIGNIFICANT WEATHER AND/OR OBSTRUCTIONS TO VISIBILITY.

* THESE STATIONS ARE NOT UNDER NWS QUALITY CONTROL. THEY ALSO MAY NOT
  REPORT WEATHER SUCH AS PRECIPITATION OR FOG.

ILZ001-002-007-009-015-016-024-200200-
NORTHWEST ILLINOIS

CITY           SKY/WX    TMP DP  RH WIND       PRES   REMARKS
MOLINE         CLOUDY    26  21  81 E7        30.27S WCI  18
STERLING*      CLOUDY    27  21  80 NE5       30.28S WCI  21
SAVANNA*       MOCLDY    27  22  80 E3        30.27F
$$

ILZ003-004-008-010-011-017-018-200200-
NORTH CENTRAL ILLINOIS

CITY           SKY/WX    TMP DP  RH WIND       PRES   REMARKS
ROCKFORD       CLOUDY    28  21  75 NE5       30.30F WCI  23
FREEPORT*      CLOUDY    26  23  86 CALM      30.29S
ROCHELLE*      PTCLDY    24  21  90 CALM      30.28F
DE KALB*       CLOUDY    25  22  91 N6        30.28R WCI  18
PERU*          CLOUDY    30  25  79 NE3       30.29S
$$

ILZ005-006-012>014-019>023-200200-
NORTHEAST ILLINOIS

CITY           SKY/WX    TMP DP  RH WIND       PRES   REMARKS
CHICAGO-OHARE  CLOUDY    30  22  72 N7        30.27F WCI  23
CHICAGO-MIDWAY CLOUDY    34  23  64 CALM      30.28F
AURORA         MOCLDY    29  23  78 N3        30.28F
LANSING*       CLOUDY    31  26  82 CALM      30.29S
JOLIET*        CLOUDY    31  24  75 CALM      30.29S
WAUKEGAN       CLOUDY    28  20  71 N3        30.28F
DUPAGE AIRPORT CLOUDY    29  23  78 N6        30.27F WCI  23
KANKAKEE*      CLOUDY    31  27  86 E3        30.29F
WHEELING       CLOUDY    30  21  69 N6        30.30F WCI  24
MORRIS*        MOCLDY    28  26  89 CALM      30.28S
ROMEOVILLE*    CLOUDY    31  25  77 CALM      30.28F
NORTHERLY ISL    N/A     32  22  67 SE2         N/A
$$

LMZ740>746-200200-
SOUTHERN LAKE MICHIGAN

STATION/POSITION SKY/WX   TEMP    WIND        PRES    VSBY  WAVE
                          AIR SEA DIR/SP/G                  HT/PER
                          (F)     (DEG/KT/KT) (MB)    (MI)  (FT/S)
WAUKEGAN HARBOR            29        CALM       N/A
HARRISON CRIB              32     320/  2/  5   N/A
BURNHAM HARBOR             32     170/  3/  3   N/A
CALUMET HARBOR             32     120/  2/  2 1024.4R
$$

ILZ025>027-034>036-040-047-049-050-058-095>099-200200-
WEST-CENTRAL ILLINOIS

CITY           SKY/WX    TMP DP  RH WIND       PRES   REMARKS
QUINCY         CLOUDY    32  25  75 SE6       30.25S WCI  26
GALESBURG*     CLOUDY    28  24  84 CALM      30.26F
MACOMB*        CLOUDY    30  28  92 SE3       30.29S
JACKSONVILLE*  CLOUDY    33  29  84 E6        30.27S WCI  28
PITTSFIELD*    CLOUDY    33  29  85 E3        30.27S
$$

ILZ028>032-037-038-041>044-048-051>054-059>061-200200-
CENTRAL ILLINOIS

CITY           SKY/WX    TMP DP  RH WIND       PRES   REMARKS
PONTIAC        MOCLDY    28  26  92 CALM      30.30S
BLOOMINGTON    MOCLDY    27  25  92 CALM      30.29S
DECATUR        CLOUDY    30  25  81 CALM      30.29S
PEORIA         MOCLDY    30  21  69 E3        30.29R
LACON*         CLOUDY    29  23  78 CALM      30.29S
LINCOLN*       CLOUDY    30  27  88 CALM      30.30S
SPRINGFIELD    CLOUDY    32  25  75 NE5       30.29S WCI  27
TAYLORVILLE    CLOUDY    30  27  86 CALM      30.28F
$$

ILZ033-039-045-046-055>057-062-063-200200-
EAST-CENTRAL ILLINOIS

CITY           SKY/WX    TMP DP  RH WIND       PRES   REMARKS
CHAMPAIGN      CLOUDY    28  23  81 E5        30.28F WCI  23
DANVILLE*      CLOUDY    29  26  89 SE3       30.27F
RANTOUL*       CLOUDY    31  28  88 E5        30.28F WCI  26
MATTOON        CLOUDY    30  24  78 CALM      30.27F
PARIS*         CLOUDY    31  28  87 CALM      30.30S
$$

ILZ079-100>102-200200-
SOUTHWEST ILLINOIS

CITY           SKY/WX    TMP DP  RH WIND       PRES   REMARKS
BELLEVILLE     CLOUDY    35  29  81 NE1       30.27F
CAHOKIA*       CLOUDY    36  29  75 E5        30.27F WCI  32
SPARTA*        CLOUDY    34  29  83 E3        30.27F
$$

ILZ064>066-069>071-074>076-080>082-084>086-088>090-092>094-200200-
SOUTH-CENTRAL ILLINOIS

CITY           SKY/WX    TMP DP  RH WIND       PRES   REMARKS
CARBONDALE     CLOUDY    36  27  69 CALM      30.28R
CAIRO*         CLOUDY    40  33  77 NE7       30.25S
EFFINGHAM*     CLOUDY    32  23  70 CALM      30.29F
MARION         CLOUDY    36  28  75 NE3       30.29R
MT. VERNON     CLOUDY    34  25  69 NE5       30.28F WCI  30
CENTRALIA*     CLOUDY    34  26  72 E3        30.27F
SALEM*         CLOUDY    35  26  70 CALM      30.28S
METROPOLIS*    CLOUDY    37  30  77 CALM      30.26R
$$

ILZ067-068-072-073-078-083-087-091-200200-
SOUTHEAST ILLINOIS

CITY           SKY/WX    TMP DP  RH WIND       PRES   REMARKS
LAWRENCEVILLE  CLOUDY    30  26  85 CALM      30.30S
FLORA*         CLOUDY    32  26  77 CALM      30.30S
FAIRFIELD*     CLOUDY    33  26  76 CALM      30.28S
HARRISBURG*    CLOUDY    35  27  75 NE5       30.29S WCI  30
ROBINSON*      CLOUDY    29  26  87 CALM      30.31S
CARMI*         CLOUDY    34  30  86 CALM      30.28S
$$

ABBREVIATIONS USED IN REMARKS
   TC - TEMPERATURE IN CELSIUS
  WCI - WIND CHILL INDEX
   HX - HEAT INDEX
  VSB - VISIBILITY
$$



USA.gov is the U.S. government's official web portal to all federal, state and local government web resources and services.